logo Eve Who17,730,638 Characters
835,958 Corporations
9,250 Alliances

Home Pilots Corporations Alliances FAQ 

corp logo
alli logo
character image
Character:Captain Ramius
Corporation:Blueprint Haus
Alliance:Blades of Grass
Sec. Status:5.0
Links:zKillboard
EveSkillBoard
Eve-Search
Last Updated: 2019-07-22 10:19:18 | 664172498
Corp. History
 NameJoinedLeft
corp logoBlueprint Haus2018/12/20 20:17
corp logoBrutor Tribe2018/12/04 16:322018/12/20 20:16
corp logoOut of Focus2018/11/13 17:202018/12/04 16:31
corp logoThe Walking Deads2018/10/29 15:352018/11/13 17:19
corp logoNew Alliance Who Dis2018/09/02 01:522018/10/29 15:34
corp logoPagids Legion2018/07/05 00:142018/09/02 01:51
corp logoBrutor Tribe2018/06/21 13:082018/07/05 00:13
corp logoNew Alliance Who Dis2018/06/15 21:132018/06/21 13:07
corp logoBrutor Tribe2018/06/15 21:132018/06/15 21:12
corp logoThe Mythically Intoxicated2018/02/20 04:262018/06/15 21:12
corp logoBrutor Tribe2018/02/20 04:252018/02/20 04:25
corp logoBlueprint Haus2017/09/07 03:432018/02/20 04:24
corp logoBrutor Tribe2017/09/07 03:432017/09/07 03:42
corp logoAustralian Mining and industry Corp2016/04/17 04:432017/09/07 03:42
corp logoBrutor Tribe2016/04/05 01:122016/04/17 04:42
corp logo30plus2015/08/25 04:522016/04/05 01:11
corp logoSilver Guardians2015/05/19 21:082015/08/25 04:51
corp logoFull Spectrum Inc2014/12/03 21:092015/05/19 21:07
corp logoBrutor Tribe2014/11/19 20:502014/12/03 21:08
corp logoX-Prot2014/01/23 16:432014/11/19 20:49
corp logoBrutor Tribe2014/01/22 05:512014/01/23 16:42
corp logoRD October2012/02/13 04:392014/01/22 05:50
corp logoBrutor Tribe2012/02/05 03:402012/02/13 04:38
corp logoRD October2011/12/27 01:142012/02/05 03:39
corp logoCelerna2011/12/10 05:022011/12/27 01:13
corp logoBrutor Tribe2011/09/28 02:182011/12/10 05:01
corp logoGLOBAL DISSENSION2011/07/26 02:562011/09/28 02:17
corp logoBrutor Tribe2011/07/22 17:462011/07/26 02:55
corp logoPerpetual ISK2011/07/22 17:352011/07/22 17:45
corp logoBrutor Tribe2011/07/22 02:432011/07/22 17:34
corp logoWraith.Wing2011/06/20 13:132011/07/22 02:42
corp logoBrutor Tribe2011/06/18 15:102011/06/20 13:12
corp logoPink Unicorn Legion2011/06/01 04:002011/06/18 15:09
corp logoBrutor Tribe2011/06/01 03:592011/06/01 03:59
corp logoNorse'Storm Battle Group2011/05/12 23:152011/06/01 03:58
corp logoBrutor Tribe2011/05/12 20:592011/05/12 23:14
corp logoImperial Strippers2011/05/10 15:142011/05/12 20:58
corp logoCaLiARr Holding Corp2011/05/06 05:302011/05/10 15:13
corp logoBrutor Tribe2011/05/06 01:382011/05/06 05:29
corp logoImperial Strippers2011/04/27 17:352011/05/06 01:37
corp logoBrutor Tribe2011/04/27 17:322011/04/27 17:34
corp logoRD October2011/04/20 03:062011/04/27 17:31
corp logoBrutor Tribe2011/04/17 03:282011/04/20 03:05
corp logoKinetic Cartel2011/02/10 17:192011/04/17 03:27
corp logoBrutor Tribe2011/02/10 17:172011/02/10 17:18
corp logoRD October2011/02/04 01:292011/02/10 17:16
corp logoBrutor Tribe2011/02/03 23:342011/02/04 01:28
corp logoSmegnet Incorporated2010/12/14 07:302011/02/03 23:33
corp logoBrutor Tribe2010/12/14 06:582010/12/14 07:29
corp logoVeteran Defense Initiative2010/09/10 04:162010/12/14 06:57
corp logoRepublic Military School2010/09/10 03:502010/09/10 04:15


Any pilots, corporations, or alliances that relate to actual people or entities are purely coincidental.
7q/60ms Disclaimer A / C Brought to you by: Squizz Caphinator Forum Thread
EVE Online and the EVE logo are the registered trademarks of CCP hf. All rights are reserved worldwide. All other trademarks are the property of their respective owners. EVE Online, the EVE logo, EVE and all associated logos and designs are the intellectual property of CCP hf. All artwork, screenshots, characters, vehicles, storylines, world facts or other recognizable features of the intellectual property relating to these trademarks are likewise the intellectual property of CCP hf. CCP hf. has granted permission to evewho.com to use EVE Online and all associated logos and designs for promotional and information purposes on its website but does not endorse, and is not in any way affiliated with, evewho.com. CCP is in no way responsible for the content on or functioning of this website, nor can it be liable for any damage arising from the use of this website.